[[{"header":{"parameterUnit":"m.s-1","parameterCategory":1,"la1":30.2992,"la2":30.254,"lo1":-89.0895,"lo2":-89.0443,"dy":0.0025,"dx":0.0025,"nx":19,"ny":19,"refTime":"2026-04-24T03:00:00:Z","depth":0,"parameterNumber":2,"parameterNumberName":"U-component_of_WINDS"},"data":[0,0,0,0.4217,0.4219,0.4303,0.4303,0.4399,0.44,0,0,0,0,0,0,0,0,0,0,0,0.4186,0.4187,0.4217,0.4219,0.4303,0.4303,0.4399,0.44,0,0,0,0,0,0,0,0,0,0,0,0.4186,0.4186,0.4187,0.4219,0.4303,0.4303,0.4399,0.434,0,0,0,0,0,0,0,0,0,0,0.426,0.4225,0.4186,0.4187,0.422,0.4303,0.4303,0.4337,0.4343,0.4357,0,0.4367,0,0.4385,0.4406,0.4406,0,0,0,0.4224,0.422,0.4248,0.4187,0.4221,0.4302,0.4266,0.4341,0.4348,0.4365,0.4368,0.4372,0.4386,0.4406,0.4407,0.4468,0.4468,0,0,0.4219,0.4198,0.4243,0.4252,0.4239,0.4264,0.4269,0.4345,0.4347,0.4369,0.4375,0.4388,0.4407,0.4407,0.4468,0.4468,0,0,0,0.4203,0.4194,0.4221,0.4248,0.4264,0.4266,0.4272,0.4344,0.4355,0.4376,0.4389,0.4407,0.4408,0.4468,0.4468,0.445,0,0,0,0.42,0.4185,0.4219,0.4206,0.4263,0.4305,0.4269,0.4349,0.4359,0.4389,0.4407,0.4409,0.4468,0.4468,0.4451,0.4446,0,0,0,0.4183,0.4183,0.4193,0.4205,0.424,0.4304,0.432,0.4352,0.4366,0.4406,0.4409,0.4468,0.4468,0.4451,0.4446,0.4456,0,0,0,0.4158,0.4176,0.4192,0.4217,0.4239,0.4293,0.4319,0.436,0.4392,0.4408,0.4468,0.4468,0.4451,0.4447,0.4456,0.4459,0.4459,0,0,0.4169,0.4176,0.4193,0.421,0.4255,0.4282,0.4324,0.4374,0.4397,0.4443,0.4445,0.4451,0.4446,0.4456,0.4463,0.4463,0,0,0,0.4189,0.42,0.4217,0.4246,0.4284,0.4317,0.4362,0.438,0.442,0.4416,0.4457,0.4455,0.4461,0.4464,0.4464,0.447,0.4468,0.4468,0.4468,0.4173,0.4202,0.4231,0.427,0.4297,0.4344,0.4369,0.4401,0.4422,0.4431,0.4445,0.4446,0.4449,0.4449,0.4455,0.4449,0.4449,0.4449,0.4449,0.4191,0.4212,0.4239,0.4277,0.4307,0.4339,0.4384,0.4397,0.4431,0.4439,0.4446,0.4451,0.4447,0.4455,0.4448,0.4448,0.4448,0.4449,0.4449,0.4184,0.4199,0.4221,0.4266,0.4297,0.4336,0.4367,0.4393,0.4418,0.4425,0.4443,0.4443,0.4447,0.4432,0.4432,0.4432,0.4432,0.4432,0.4432,0.4168,0.4193,0.4217,0.4258,0.4281,0.4313,0.4359,0.4381,0.4413,0.4429,0.443,0.4449,0.4442,0.4439,0.4432,0.4432,0.4432,0.4432,0.4432,0.4176,0.4179,0.4215,0.4237,0.4288,0.4317,0.435,0.4393,0.4415,0.4429,0.4448,0.4437,0.4447,0.4448,0.4446,0.4441,0.4441,0.4441,0.4441,0.417,0.4178,0.4221,0.4254,0.429,0.4323,0.4363,0.4398,0.4435,0.445,0.4455,0.4455,0.4454,0.4464,0.4465,0.4463,0.4463,0.4463,0.4463,0.4177,0.4189,0.4218,0.4255,0.4296,0.4331,0.4369,0.4405,0.4448,0.4464,0.4463,0.4462,0.4462,0.446,0.4477,0.4477,0.4475,0,0]},{"header":{"parameterUnit":"m.s-1","parameterCategory":1,"la1":30.2992,"la2":30.254,"lo1":-89.0895,"lo2":-89.0443,"dy":0.0025,"dx":0.0025,"nx":19,"ny":19,"refTime":"2026-04-24T03:00:00:Z","depth":0,"parameterNumber":3,"parameterNumberName":"V-component_of_WINDS"},"data":[0,0,0,5.0843,5.0843,5.0874,5.0874,5.0914,5.0914,0,0,0,0,0,0,0,0,0,0,0,5.0835,5.0835,5.0843,5.0844,5.0874,5.0874,5.0913,5.0914,0,0,0,0,0,0,0,0,0,0,0,5.0834,5.0835,5.0835,5.0844,5.0874,5.0874,5.0913,5.089,0,0,0,0,0,0,0,0,0,0,5.086,5.0854,5.0835,5.0835,5.0844,5.0874,5.0874,5.0889,5.0891,5.09,0,5.0909,0,5.0912,5.0917,5.0917,0,0,0,5.0842,5.0851,5.0859,5.0835,5.0844,5.0874,5.086,5.089,5.0893,5.0904,5.0909,5.0911,5.0913,5.0917,5.0917,5.0976,5.0976,0,0,5.0841,5.084,5.0857,5.0861,5.0858,5.0859,5.0861,5.0892,5.0898,5.091,5.0912,5.0914,5.0917,5.0918,5.0975,5.0976,0,0,0,5.0837,5.0839,5.0846,5.086,5.0865,5.086,5.0862,5.0896,5.0899,5.0912,5.0914,5.0917,5.0918,5.0975,5.0975,5.0993,0,0,0,5.0835,5.0837,5.0845,5.0845,5.0865,5.0881,5.0866,5.0897,5.09,5.0914,5.0917,5.0918,5.0974,5.0975,5.0992,5.1002,0,0,0,5.0832,5.0836,5.0841,5.0845,5.0859,5.0881,5.0885,5.0898,5.0901,5.0917,5.0918,5.0974,5.0975,5.0991,5.1,5.1019,0,0,0,5.0828,5.0854,5.0842,5.0872,5.0858,5.0892,5.0885,5.0909,5.0925,5.0918,5.0975,5.0975,5.099,5.0998,5.1017,5.1035,5.1042,0,0,5.0861,5.0858,5.0876,5.0866,5.0902,5.0887,5.0926,5.0939,5.0939,5.0963,5.0965,5.0992,5.0999,5.1018,5.1081,5.1087,0,0,0,5.0886,5.0899,5.0909,5.0925,5.0937,5.0949,5.0956,5.0962,5.0983,5.0952,5.1004,5.1008,5.1019,5.1027,5.1032,5.1043,5.0979,5.0979,5.0979,5.0931,5.0934,5.0964,5.097,5.0986,5.0995,5.1008,5.1016,5.1011,5.1023,5.103,5.1068,5.1079,5.1082,5.1093,5.1039,5.1039,5.1039,5.1039,5.0981,5.1001,5.0997,5.1025,5.1027,5.105,5.106,5.1056,5.1078,5.1062,5.1072,5.1056,5.1089,5.1098,5.104,5.104,5.104,5.104,5.104,5.1012,5.1022,5.103,5.1055,5.1074,5.1078,5.1101,5.11,5.11,5.1109,5.1118,5.1118,5.1119,5.1114,5.1114,5.1114,5.1114,5.1114,5.1114,5.1041,5.1049,5.1069,5.1087,5.1099,5.1114,5.1125,5.1136,5.1147,5.1145,5.1146,5.1141,5.1091,5.108,5.1116,5.1116,5.1116,5.1115,5.1115,5.1092,5.1082,5.1112,5.1124,5.1146,5.1166,5.1166,5.1189,5.1198,5.1209,5.1203,5.1166,5.1162,5.1158,5.1149,5.1201,5.1201,5.1201,5.1201,5.1119,5.1118,5.1152,5.1171,5.119,5.1195,5.1229,5.1239,5.1246,5.1252,5.1244,5.1231,5.1227,5.1226,5.1221,5.1212,5.1279,5.1279,5.1279,5.1152,5.1153,5.1184,5.1194,5.1211,5.1226,5.126,5.1282,5.1287,5.1282,5.1257,5.1253,5.1232,5.1225,5.122,5.1211,5.1195,0,0]}]]